AUA62W LDSP-LOWW

Flight info

Callsign AUA62W
Flight time 0h 48m
Altitude 34000
Route SIRMI8D SIRMI DCT RUDIK DCT OBUTI OBUTI2W
Aircraft A321/M-SDE2E3FGIJ1RWXY/LB1

Departure

Time 2026-04-24 16:14
Airport Split Saint Jerome Airport (LDSP)

Arrival

Time 2026-04-24 17:03
Airport Vienna International Airport (LOWW)
Time Latitude Longitude Altitude Speed Heading
2026-04-24 16:06 43.53695 16.29809 73 ft 0 kts 115°
2026-04-24 16:07 43.53702 16.29822 66 ft 2 kts 21°
2026-04-24 16:08 43.53716 16.29802 68 ft 5 kts 298°
2026-04-24 16:08 43.53799 16.29867 73 ft 9 kts 53°
2026-04-24 16:09 43.53894 16.30039 69 ft 9 kts 47°
2026-04-24 16:09 43.53906 16.30053 73 ft 0 kts 31°
2026-04-24 16:11 43.53967 16.30085 65 ft 10 kts 16°
2026-04-24 16:11 43.54047 16.30116 69 ft 15 kts 16°
2026-04-24 16:11 43.54132 16.30226 67 ft 19 kts 53°
2026-04-24 16:12 43.54322 16.30570 57 ft 25 kts 52°
2026-04-24 16:12 43.54434 16.30771 57 ft 27 kts 52°
2026-04-24 16:12 43.54551 16.31047 58 ft 7 kts 75°
2026-04-24 16:13 43.54584 16.31051 56 ft 6 kts 272°
2026-04-24 16:13 43.54573 16.31023 56 ft 0 kts 233°
2026-04-24 16:14 43.54440 16.30780 57 ft 72 kts 233°
2026-04-24 16:14 43.53995 16.29977 74 ft 136 kts 234°
2026-04-24 16:14 43.52650 16.27628 1182 ft 159 kts 239°
2026-04-24 16:15 43.52193 16.26841 1723 ft 160 kts 236°
2026-04-24 16:15 43.50586 16.24165 3041 ft 156 kts 239°
2026-04-24 16:16 43.49098 16.21681 3670 ft 186 kts 237°
2026-04-24 16:16 43.48233 16.20268 4009 ft 199 kts 236°
2026-04-24 16:17 43.46221 16.14925 5013 ft 232 kts 272°
2026-04-24 16:17 43.47768 16.10991 5720 ft 255 kts 324°
2026-04-24 16:18 43.50735 16.07990 7012 ft 270 kts 327°
2026-04-24 16:18 43.53779 16.04878 8497 ft 275 kts 325°
2026-04-24 16:18 43.55365 16.03400 9232 ft 275 kts 336°
2026-04-24 16:19 43.59139 16.03063 10331 ft 289 kts 12°
2026-04-24 16:19 43.61127 16.03731 10617 ft 307 kts 13°
2026-04-24 16:20 43.65493 16.05180 11269 ft 336 kts 13°
2026-04-24 16:20 43.70115 16.06640 12514 ft 341 kts 12°
2026-04-24 16:20 43.72425 16.07448 13179 ft 343 kts 18°
2026-04-24 16:21 43.76927 16.09830 14449 ft 347 kts 21°
2026-04-24 16:21 43.79187 16.11049 15046 ft 349 kts 21°
2026-04-24 16:21 43.81464 16.12276 15597 ft 353 kts 22°
2026-04-24 16:22 43.83760 16.13519 16167 ft 355 kts 22°
2026-04-24 16:22 43.88419 16.16028 17182 ft 363 kts 22°
2026-04-24 16:22 43.90781 16.17311 17717 ft 366 kts 22°
2026-04-24 16:23 43.93165 16.18591 18233 ft 370 kts 22°
2026-04-24 16:23 43.95572 16.19887 18716 ft 372 kts 22°
2026-04-24 16:23 43.97961 16.21169 19166 ft 375 kts 22°
2026-04-24 16:24 44.02878 16.23832 20063 ft 379 kts 22°
2026-04-24 16:24 44.05348 16.25169 20482 ft 382 kts 22°
2026-04-24 16:24 44.07835 16.26521 20899 ft 385 kts 22°
2026-04-24 16:24 44.10341 16.27894 21316 ft 388 kts 22°
2026-04-24 16:25 44.12861 16.29270 21755 ft 390 kts 22°
2026-04-24 16:25 44.15447 16.30277 22167 ft 394 kts 10°
2026-04-24 16:25 44.18204 16.30491 22575 ft 399 kts
2026-04-24 16:26 44.23792 16.30419 23424 ft 404 kts
2026-04-24 16:26 44.26606 16.30397 23803 ft 406 kts
2026-04-24 16:26 44.32281 16.30389 24488 ft 409 kts
2026-04-24 16:27 44.35141 16.30396 24819 ft 411 kts
2026-04-24 16:27 44.38010 16.30401 25152 ft 413 kts
2026-04-24 16:27 44.40893 16.30406 25472 ft 415 kts
2026-04-24 16:27 44.43795 16.30411 25784 ft 417 kts
2026-04-24 16:28 44.46706 16.30416 26091 ft 419 kts
2026-04-24 16:28 44.49632 16.30420 26398 ft 421 kts
2026-04-24 16:28 44.55524 16.30428 27003 ft 425 kts
2026-04-24 16:29 44.58447 16.30432 27290 ft 427 kts
2026-04-24 16:29 44.61420 16.30438 27588 ft 428 kts
2026-04-24 16:29 44.67406 16.30450 28143 ft 432 kts
2026-04-24 16:30 44.73432 16.30458 28709 ft 435 kts
2026-04-24 16:30 44.76456 16.30462 29053 ft 434 kts
2026-04-24 16:30 44.79479 16.30465 29426 ft 433 kts
2026-04-24 16:31 44.82490 16.30470 29822 ft 431 kts
2026-04-24 16:31 44.85487 16.30476 30188 ft 430 kts
2026-04-24 16:31 44.88478 16.30479 30502 ft 429 kts
2026-04-24 16:31 44.91458 16.30484 30811 ft 428 kts
2026-04-24 16:32 44.93431 16.30488 31003 ft 428 kts
2026-04-24 16:32 44.96404 16.30494 31316 ft 427 kts
2026-04-24 16:32 44.99369 16.30499 31613 ft 426 kts
2026-04-24 16:32 45.02328 16.30474 31922 ft 425 kts
2026-04-24 16:33 45.05284 16.30398 32223 ft 424 kts
2026-04-24 16:33 45.08228 16.30317 32506 ft 423 kts
2026-04-24 16:33 45.11170 16.30245 32790 ft 422 kts
2026-04-24 16:33 45.14099 16.30180 33066 ft 421 kts
2026-04-24 16:34 45.17035 16.30116 33345 ft 421 kts
2026-04-24 16:34 45.19954 16.30052 33621 ft 420 kts
2026-04-24 16:34 45.22873 16.29985 33926 ft 418 kts
2026-04-24 16:34 45.25784 16.29920 34050 ft 419 kts
2026-04-24 16:35 45.31606 16.29793 34044 ft 417 kts
2026-04-24 16:35 45.37418 16.29667 34026 ft 418 kts
2026-04-24 16:36 45.43182 16.29542 34024 ft 416 kts
2026-04-24 16:36 45.48974 16.29415 34024 ft 416 kts
2026-04-24 16:37 45.54756 16.29282 34024 ft 416 kts
2026-04-24 16:37 45.60542 16.29151 34021 ft 416 kts
2026-04-24 16:38 45.66334 16.29024 34020 ft 416 kts
2026-04-24 16:38 45.72125 16.28897 34022 ft 416 kts
2026-04-24 16:39 45.77911 16.28765 34019 ft 416 kts
2026-04-24 16:39 45.83697 16.28631 34024 ft 414 kts
2026-04-24 16:40 45.89456 16.28500 34021 ft 414 kts
2026-04-24 16:40 45.95177 16.28371 34020 ft 414 kts
2026-04-24 16:41 46.00935 16.28245 34023 ft 414 kts
2026-04-24 16:41 46.06672 16.28113 33722 ft 410 kts
2026-04-24 16:42 46.09524 16.28050 33350 ft 411 kts
2026-04-24 16:42 46.12391 16.27985 32954 ft 412 kts
2026-04-24 16:42 46.15268 16.27918 32567 ft 414 kts
2026-04-24 16:42 46.18154 16.27852 32178 ft 416 kts
2026-04-24 16:43 46.21060 16.27788 31795 ft 418 kts
2026-04-24 16:43 46.23967 16.27723 31419 ft 418 kts
2026-04-24 16:43 46.26890 16.27657 31044 ft 420 kts
2026-04-24 16:43 46.29821 16.27589 30671 ft 422 kts
2026-04-24 16:44 46.32763 16.27521 30312 ft 424 kts
2026-04-24 16:44 46.35679 16.27453 30045 ft 426 kts
2026-04-24 16:44 46.41606 16.26537 30000 ft 430 kts 352°
2026-04-24 16:45 46.47519 16.25104 30011 ft 431 kts 352°
2026-04-24 16:45 46.53441 16.23690 30014 ft 431 kts 352°
2026-04-24 16:46 46.59371 16.22296 29893 ft 431 kts 352°
2026-04-24 16:46 46.62325 16.21594 29502 ft 431 kts 352°
2026-04-24 16:46 46.65292 16.20883 29035 ft 432 kts 351°
2026-04-24 16:47 46.68258 16.20171 28555 ft 433 kts 351°
2026-04-24 16:47 46.71245 16.19459 28068 ft 435 kts 351°
2026-04-24 16:47 46.74234 16.18747 27600 ft 437 kts 351°
2026-04-24 16:47 46.77237 16.18034 27137 ft 438 kts 351°
2026-04-24 16:48 46.80250 16.17310 26678 ft 439 kts 351°
2026-04-24 16:48 46.83272 16.16581 26227 ft 441 kts 351°
2026-04-24 16:48 46.86305 16.15854 25787 ft 442 kts 351°
2026-04-24 16:48 46.89344 16.15123 25348 ft 443 kts 351°
2026-04-24 16:49 46.92395 16.14387 24924 ft 445 kts 351°
2026-04-24 16:49 46.95453 16.13655 24496 ft 446 kts 351°
2026-04-24 16:49 46.98525 16.12914 24080 ft 448 kts 351°
2026-04-24 16:49 47.01609 16.12167 23669 ft 450 kts 351°
2026-04-24 16:50 47.03656 16.11670 23362 ft 451 kts 351°
2026-04-24 16:50 47.07807 16.10754 22710 ft 452 kts 356°
2026-04-24 16:50 47.10935 16.11062 22135 ft 453 kts 11°
2026-04-24 16:50 47.13871 16.12535 21531 ft 453 kts 24°
2026-04-24 16:51 47.16641 16.14714 20893 ft 450 kts 27°
2026-04-24 16:51 47.19366 16.16939 20223 ft 445 kts 27°
2026-04-24 16:51 47.22068 16.19114 19555 ft 441 kts 27°
2026-04-24 16:51 47.24753 16.21237 18892 ft 436 kts 26°
2026-04-24 16:52 47.27415 16.23329 18239 ft 431 kts 26°
2026-04-24 16:52 47.30038 16.25394 17505 ft 425 kts 26°
2026-04-24 16:52 47.32633 16.27442 16785 ft 421 kts 26°
2026-04-24 16:52 47.35194 16.29470 16082 ft 416 kts 26°
2026-04-24 16:53 47.37730 16.31475 15394 ft 411 kts 26°
2026-04-24 16:53 47.40231 16.33473 14711 ft 407 kts 26°
2026-04-24 16:53 47.42712 16.35459 14051 ft 403 kts 26°
2026-04-24 16:53 47.45172 16.37411 13366 ft 400 kts 26°
2026-04-24 16:54 47.47608 16.39352 12737 ft 396 kts 26°
2026-04-24 16:54 47.50029 16.41289 12159 ft 393 kts 26°
2026-04-24 16:54 47.52421 16.43208 11606 ft 391 kts 25°
2026-04-24 16:54 47.54806 16.45122 11064 ft 388 kts 25°
2026-04-24 16:55 47.57170 16.47015 10528 ft 385 kts 25°
2026-04-24 16:55 47.59529 16.48887 10004 ft 382 kts 24°
2026-04-24 16:55 47.61975 16.50340 9453 ft 376 kts 16°
2026-04-24 16:55 47.64450 16.51563 8916 ft 373 kts 15°
2026-04-24 16:56 47.66870 16.52755 8410 ft 371 kts 15°
2026-04-24 16:56 47.69317 16.53975 7960 ft 370 kts 15°
2026-04-24 16:56 47.71742 16.55206 7562 ft 367 kts 16°
2026-04-24 16:56 47.74152 16.56435 7183 ft 365 kts 16°
2026-04-24 16:57 47.76549 16.57654 6703 ft 364 kts 16°
2026-04-24 16:57 47.78924 16.58870 6122 ft 360 kts 16°
2026-04-24 16:57 47.81287 16.60072 5500 ft 357 kts 16°
2026-04-24 16:57 47.83630 16.61266 4860 ft 356 kts 16°
2026-04-24 16:58 47.85968 16.62459 4138 ft 354 kts 16°
2026-04-24 16:58 47.88287 16.63648 3485 ft 350 kts 16°
2026-04-24 16:58 47.90517 16.64780 3102 ft 324 kts 15°
2026-04-24 16:58 47.92574 16.65578 2987 ft 286 kts
2026-04-24 16:59 47.94432 16.65478 2979 ft 253 kts 346°
2026-04-24 16:59 47.96039 16.64805 2983 ft 229 kts 339°
2026-04-24 16:59 47.98857 16.63362 2610 ft 203 kts 341°
2026-04-24 17:00 48.00128 16.62821 2412 ft 177 kts 341°
2026-04-24 17:00 48.02248 16.61925 1967 ft 142 kts 340°
2026-04-24 17:00 48.03185 16.61529 1740 ft 140 kts 340°
2026-04-24 17:01 48.05042 16.60752 1354 ft 138 kts 341°
2026-04-24 17:01 48.05971 16.60349 1194 ft 140 kts 340°
2026-04-24 17:02 48.07856 16.59563 839 ft 141 kts 337°
2026-04-24 17:02 48.08797 16.59164 658 ft 141 kts 338°
2026-04-24 17:02 48.09676 16.58790 623 ft 115 kts 343°
2026-04-24 17:02 48.10369 16.58497 619 ft 92 kts 344°
2026-04-24 17:03 48.11369 16.58076 624 ft 58 kts 342°
2026-04-24 17:03 48.11664 16.57952 618 ft 33 kts 343°
2026-04-24 17:03 48.11829 16.57849 619 ft 22 kts 307°
2026-04-24 17:04 48.11855 16.57651 616 ft 13 kts 252°
2026-04-24 17:04 48.11817 16.57327 620 ft 18 kts 298°
2026-04-24 17:04 48.11853 16.57166 613 ft 18 kts 277°
2026-04-24 17:05 48.11895 16.57022 619 ft 8 kts 296°
2026-04-24 17:05 48.11886 16.56962 622 ft 7 kts 210°
2026-04-24 17:05 48.11853 16.56937 613 ft 0 kts 206°
2026-04-24 17:06 48.11853 16.56938 613 ft 0 kts 206°
2026-04-24 17:06 48.11849 16.56934 617 ft 0 kts 206°
2026-04-24 17:06 48.11848 16.56933 616 ft 0 kts 205°